DW1996 Weather Reports


Display with metric or nautical units.
time (UTC)temp
F
wind
direction
speed
MPH
gust
MPH
rain 1hr
in
rain 24hr
in
rain mn
in
humidity
%
barometer
mb
20260903113059 83 163 3.0 9.0 0.00 0.00 0.00 85 1011.1
20260903111606 83 199 3.0 8.0 0.00 0.00 0.00 85 1011.3
20260903110056 83 196 0.0 7.0 0.00 0.00 0.00 85 1011.5
20260903104617 83 178 3.0 9.0 0.00 0.00 0.00 84 1011.2
20260903103103 84 192 5.0 10.0 0.00 0.00 0.00 84 1011.2
20260903101555 84 211 3.0 9.0 0.00 0.00 0.00 84 1011.3
20260903100053 84 205 4.0 9.0 0.00 0.00 0.00 84 1011.3
20260903094551 84 178 5.0 9.0 0.00 0.00 0.00 83 1011.2
20260903093059 84 200 4.0 11.0 0.00 0.00 0.00 83 1011.4
20260903091552 84 196 5.0 9.0 0.00 0.00 0.00 83 1011.4
20260903090047 84 190 4.0 10.0 0.00 0.00 0.00 83 1011.6
20260903084548 84 175 5.0 14.0 0.00 0.00 0.00 83 1011.5
20260903083050 84 205 8.0 15.0 0.00 0.00 0.00 83 1011.6
20260903081553 84 167 7.0 14.0 0.00 0.00 0.00 82 1011.6
20260903080041 84 200 4.0 14.0 0.00 0.00 0.00 82 1011.7
20260903074542 85 221 5.0 13.0 0.00 0.00 0.00 82 1011.9
20260903073038 85 203 6.0 11.0 0.00 0.00 0.00 82 1012.0
20260903071536 85 188 5.0 8.0 0.00 0.00 0.00 82 1012.1
20260903070035 85 202 7.0 13.0 0.00 0.00 0.00 82 1012.3
20260903064537 85 188 8.0 13.0 0.00 0.00 0.00 82 1012.2
20260903063038 85 194 4.0 10.0 0.00 0.00 0.00 82 1012.4
20260903061529 85 183 5.0 11.0 0.00 0.00 0.00 82 1012.4
20260903060029 85 174 6.0 10.0 0.00 0.00 0.00 82 1012.2
20260903054527 85 237 4.0 11.0 0.00 0.00 0.00 82 1012.3
20260903053025 85 198 3.0 10.0 0.00 0.00 0.00 81 1012.4
20260903051523 85 161 7.0 12.0 0.00 0.00 0.00 81 1012.5
20260903050037 86 211 6.0 13.0 0.00 0.00 0.00 80 1012.5
20260903044521 86 188 7.0 16.0 0.00 0.00 0.00 81 1012.3
20260903043020 86 195 7.0 17.0 0.00 0.00 0.00 81 1012.4
20260903041520 86 172 7.0 14.0 0.00 0.00 0.00 81 1012.5
20260903040019 86 185 7.0 15.0 0.00 0.00 0.00 81 1012.4
20260903034519 86 122 9.0 16.0 0.00 0.00 0.00 81 1012.4
20260903033018 86 136 6.0 13.0 0.00 0.00 0.00 81 1012.3
20260903031517 86 129 7.0 12.0 0.00 0.00 0.00 81 1012.4
20260903030019 86 134 4.0 12.0 0.00 0.00 0.00 80 1012.0
20260903024517 86 157 6.0 14.0 0.00 0.00 0.00 80 1011.9
20260903023025 86 122 7.0 14.0 0.00 0.00 0.00 79 1011.6
20260903021519 86 187 6.0 13.0 0.00 0.00 0.00 79 1011.4
20260903020045 86 148 8.0 15.0 0.00 0.00 0.00 79 1011.2
20260903014514 87 126 6.0 12.0 0.00 0.00 0.00 79 1011.0
20260903013013 87 212 7.0 17.0 0.00 0.00 0.00 79 1010.8
20260903011513 87 176 8.0 18.0 0.00 0.00 0.00 78 1010.8
20260903010012 87 157 10.0 16.0 0.00 0.00 0.00 77 1010.6
20260903004512 87 169 11.0 16.0 0.00 0.00 0.00 77 1010.5
20260903003011 88 188 9.0 17.0 0.00 0.00 0.00 75 1010.4
20260903001510 89 163 9.0 17.0 0.00 0.00 0.00 74 1010.3
20260903000010 89 144 4.0 15.0 0.00 0.00 0.00 74 1010.3
20260902234509 90 163 8.0 19.0 0.00 0.00 0.00 72 1010.3
20260902233011 90 158 7.0 20.0 0.00 0.00 0.00 72 1010.4
20260902231510 90 182 8.0 16.0 0.00 0.00 0.00 72 1010.4
20260902230007 91 140 8.0 19.0 0.00 0.00 0.00 71 1010.3
20260902224513 92 184 9.0 16.0 0.00 0.00 0.00 70 1010.3
20260902223007 93 178 9.0 16.0 0.00 0.00 0.00 68 1010.3
20260902221508 94 155 8.0 19.0 0.00 0.00 0.00 67 1010.2
20260902220007 94 175 10.0 18.0 0.00 0.00 0.00 63 1010.2
20260902214504 94 139 10.0 19.0 0.00 0.00 0.00 64 1010.2
20260902213003 95 180 9.0 19.0 0.00 0.00 0.00 62 1010.4
20260902211601 95 165 11.0 19.0 0.00 0.00 0.00 62 1010.6
20260902210100 96 163 9.0 19.0 0.00 0.00 0.00 61 1010.8
20260902204613 95 167 11.0 20.0 0.00 0.00 0.00 62 1010.8
20260902203057 97 142 9.0 17.0 0.00 0.00 0.00 59 1010.9
20260902201554 96 157 8.0 21.0 0.00 0.00 0.00 59 1011.2
20260902200052 97 138 13.0 19.0 0.00 0.00 0.00 60 1011.4
20260902194557 96 143 9.0 19.0 0.00 0.00 0.00 61 1011.4
20260902193049 97 167 10.0 21.0 0.00 0.00 0.00 59 1011.5
20260902191554 96 190 9.0 20.0 0.00 0.00 0.00 60 1011.7
20260902190046 97 131 8.0 17.0 0.00 0.00 0.00 60 1011.8
20260902184545 97 181 6.0 17.0 0.00 0.00 0.00 60 1012.0
20260902183100 97 153 9.0 18.0 0.00 0.00 0.00 61 1012.2
20260902181539 97 184 7.0 21.0 0.00 0.00 0.00 59 1012.4
20260902180037 98 187 9.0 16.0 0.00 0.00 0.00 54 1012.7
20260902174535 99 134 6.0 18.0 0.00 0.00 0.00 52 1012.9
20260902173050 98 219 5.0 17.0 0.00 0.00 0.00 54 1013.0
20260902171534 98 168 5.0 12.0 0.00 0.00 0.00 54 1013.3
20260902170030 97 210 6.0 13.0 0.00 0.00 0.00 57 1013.4
20260902164529 97 190 5.0 11.0 0.00 0.00 0.00 56 1013.6
20260902163027 95 209 5.0 15.0 0.00 0.00 0.00 59 1013.7
20260902161529 95 176 5.0 12.0 0.00 0.00 0.00 58 1013.8
20260902160023 95 179 8.0 16.0 0.00 0.00 0.00 58 1013.8
20260902154533 94 196 6.0 13.0 0.00 0.00 0.00 60 1013.8
20260902153015 93 187 6.0 15.0 0.00 0.00 0.00 64 1013.9
20260902151511 92 221 6.0 14.0 0.00 0.00 0.00 65 1013.7
20260902150007 90 199 7.0 13.0 0.00 0.00 0.00 68 1013.7
20260902144503 90 221 5.0 17.0 0.00 0.00 0.00 71 1013.6
20260902143103 89 193 5.0 12.0 0.00 0.00 0.00 74 1013.6
20260902141558 88 234 6.0 12.0 0.00 0.00 0.00 75 1013.6
20260902140054 87 229 4.0 10.0 0.00 0.00 0.00 77 1013.6
20260902134552 86 179 5.0 9.0 0.00 0.00 0.00 78 1013.6
20260902133049 85 185 3.0 7.0 0.00 0.00 0.00 81 1013.4
20260902131604 84 208 1.0 8.0 0.00 0.00 0.00 83 1013.2
20260902130054 83 162 0.0 5.0 0.00 0.00 0.00 85 1013.1
20260902124546 82 183 0.0 0.0 0.00 0.00 0.00 86 1013.2
20260902123045 81 167 1.0 4.0 0.00 0.00 0.00 86 1012.9
20260902121546 81 175 0.0 3.0 0.00 0.00 0.00 86 1012.7
20260902120042 81 205 0.0 0.0 0.00 0.00 0.00 86 1012.8
20260902114554 82 175 0.0 0.0 0.00 0.00 0.00 85 1012.8